This is the latest recevied weather packets stored in our database for station/object EA5JUX. If no packets are shown the sender has not sent any weather packets the latest 10 day(s).
| Time | Temp. | Humidity | Pressure | Rain* | Wind** | Luminosity | Snow |
|---|---|---|---|---|---|---|---|
| 1788092555 | 28.33° C | 67% | 1016.4 hPa | 0 mm | - | - | - |
| 1788092255 | 28.89° C | 67% | 1016.3 hPa | 0 mm | - | - | - |
| 1788091935 | 28.33° C | 67% | 1016.5 hPa | 0 mm | - | - | - |
| 1788091635 | 28.33° C | 65% | 1016.3 hPa | 0 mm | - | - | - |
| 1788091334 | 28.33° C | 63% | 1016.7 hPa | 0 mm | - | - | - |
| 1788091034 | 28.89° C | 60% | 1016.7 hPa | 0 mm | - | - | - |
| 1788090753 | 28.33° C | 60% | 1016.6 hPa | 0 mm | - | - | - |
| 1788090434 | 27.78° C | 63% | 1016.7 hPa | 0 mm | - | - | - |
| 1788090134 | 27.78° C | 64% | 1016.9 hPa | 0 mm | - | - | - |
| 1788089834 | 28.33° C | 65% | 1016.6 hPa | 0 mm | - | - | - |
| 1788089535 | 27.78° C | 63% | 1016.8 hPa | 0 mm | - | - | - |
| 1788089235 | 28.33° C | 63% | 1016.7 hPa | 0 mm | - | - | - |
| 1788088934 | 27.78° C | 64% | 1016.9 hPa | 0 mm | - | - | - |
| 1788088653 | 27.78° C | 64% | 1016.9 hPa | 0 mm | - | - | - |
| 1788088335 | 28.33° C | 66% | 1017.1 hPa | 0 mm | - | - | - |
| 1788088035 | 27.78° C | 65% | 1017.1 hPa | 0 mm | - | - | - |
| 1788087734 | 27.78° C | 65% | 1016.9 hPa | 0 mm | - | - | - |
| 1788087434 | 27.22° C | 67% | 1017 hPa | 0 mm | - | - | - |
| 1788087135 | 27.22° C | 64% | 1017 hPa | 0 mm | - | - | - |
| 1788086835 | 27.78° C | 66% | 1017.2 hPa | 0 mm | - | - | - |
| 1788086534 | 27.78° C | 65% | 1017.1 hPa | 0 mm | - | - | - |
| 1788086234 | 27.78° C | 66% | 1017 hPa | 0 mm | - | - | - |
| 1788085934 | 27.22° C | 66% | 1017.1 hPa | 0 mm | - | - | - |
| 1788085634 | 27.78° C | 69% | 1017 hPa | 0 mm | - | - | - |
| 1788085335 | 26.67° C | 70% | 1017.1 hPa | 0 mm | - | - | - |
* Rain latest hour (hover to see other rain measurements)
** Current wind speed in m/s (hover to see current wind gust speed)